Flag for Norway Weather past 2 weeks in Vennesla, Norway

Now
81 °F

Passing clouds.


Feels Like: 81 °F
Forecast: 60 / 81 °F
Wind: 10 mph from East

Location: Kristiansand / Kjevik

Current Time: Jul 25, 2014 at 11:48:48 AM

Latest Report: Jul 25, 2014 at 11:20 AM


Visibility: N/A

Pressure: 30.18 "Hg

Humidity: 51%

Dew point: 61 °F

Location of VenneslaLocation

Historic Weather in Vennesla — Graph

°F

Vennesla temperature yesterday

Maximum temperature yesterday: 84 °F (at 1:20 PM)
Minimum temperature yesterday: 61 °F (at 2:20 AM)
Average temperature yesterday: 73 °F

Past Weeks' High & Low Weather Summary

 TemperatureHumidityPressure
High84 °F (Jul 23, 12:50 PM)100% (Jul 14, 11:20 PM)30.30 "Hg (Jul 14, 11:20 PM)
Low50 °F (Jul 19, 4:20 AM)31% (Jul 24, 3:50 PM)29.56 "Hg (Jul 14, 1:50 AM)
Average67 °F68%30.04 "Hg
* Reported Jul 10 10:20 AM — Jul 25 10:50 AM, Vennesla, Weather by CustomWeather, © 2014

Note: Actual official high and low records may vary slightly from our data, if they occured in-between our weather recording intervals... More about our weather records

Advertising

Vennesla weather history for previous 24 hours

 ConditionsComfort  
Time TempWeatherWind HumidityBarometerVisibility
10:50 AM
Jul 25
79 °FPassing clouds.13 mph51%30.18 "HgN/A
10:20 AM79 °FSunny.9 mph54%30.18 "Hg10 mi
9:50 AM79 °FSunny.10 mph51%30.18 "Hg10 mi
9:20 AM77 °FPassing clouds.9 mph54%30.18 "HgN/A
8:50 AM75 °FSunny.9 mph61%30.18 "Hg10 mi
8:20 AM72 °FSunny.9 mph69%30.18 "Hg10 mi
7:50 AM70 °FSunny.8 mph69%30.18 "Hg10 mi
7:20 AM68 °FSunny.2 mph73%30.18 "Hg10 mi
6:50 AM64 °FSunny.5 mph83%30.18 "Hg10 mi
6:20 AM61 °FSunny.5 mph88%30.18 "Hg10 mi
5:50 AM59 °FClear.7 mph88%30.18 "Hg10 mi
5:20 AM59 °FCool.5 mph88%30.18 "HgN/A
4:50 AM59 °FCool.6 mph88%30.18 "HgN/A
4:20 AM61 °FCool.3 mph77%30.18 "HgN/A
3:50 AM61 °FPassing clouds.5 mph83%30.18 "HgN/A
3:20 AM61 °FCool.5 mph83%30.18 "HgN/A
2:50 AM63 °FPassing clouds.8 mph77%30.18 "HgN/A
2:20 AM59 °FCool.7 mph88%30.18 "HgN/A
1:50 AM61 °FCool.7 mph83%30.18 "HgN/A
1:20 AM61 °FCool.5 mph83%30.18 "HgN/A
12:50 AM61 °FCool.5 mph83%30.18 "HgN/A
12:20 AM63 °FMild.5 mph77%30.15 "HgN/A
11:50 PM
Jul 24
64 °FMild.6 mph78%30.15 "HgN/A
11:20 PM64 °FMild.6 mph73%30.15 "HgN/A
10:50 PM68 °FSunny.5 mph64%30.15 "Hg10 mi
10:20 PM70 °FSunny.3 mph64%30.15 "Hg10 mi
9:50 PM72 °FSunny.3 mph57%30.15 "Hg10 mi
9:20 PM77 °FSunny.2 mph47%30.15 "Hg10 mi
8:50 PM77 °FSunny.6 mph54%30.15 "Hg10 mi
8:20 PM79 °FSunny.7 mph48%30.15 "Hg10 mi
7:50 PM79 °FSunny.7 mph51%30.15 "Hg10 mi
7:20 PM79 °FSunny.8 mph48%30.15 "Hg10 mi
6:50 PM81 °FSunny.9 mph45%30.15 "Hg10 mi
6:20 PM81 °FSunny.9 mph45%30.15 "Hg10 mi
5:50 PM82 °FSunny.10 mph40%30.15 "Hg10 mi
5:20 PM82 °FSunny.10 mph40%30.15 "Hg10 mi
4:50 PM82 °FSunny.8 mph40%30.18 "Hg10 mi
4:20 PM84 °FPassing clouds.5 mph33%30.18 "HgN/A
3:50 PM84 °FPassing clouds.7 mph31%30.18 "HgN/A
3:20 PM84 °FPassing clouds.7 mph35%30.18 "HgN/A
2:50 PM84 °FPassing clouds.7 mph35%30.18 "HgN/A
2:20 PM82 °FPassing clouds.10 mph35%30.21 "HgN/A
1:50 PM82 °FPassing clouds.8 mph37%30.21 "HgN/A
1:20 PM84 °FPassing clouds.10 mph37%30.21 "HgN/A
12:50 PM82 °FSunny.12 mph40%30.21 "Hg10 mi
12:20 PM82 °FPassing clouds.9 mph40%30.21 "HgN/A
11:50 AM82 °FSunny.12 mph40%30.21 "Hg10 mi
11:20 AM82 °FSunny.13 mph40%30.21 "Hg10 mi
Weather by CustomWeather, © 2014

See weather overviewHow to use our weather pages